Erie International Tom Ridge Field
KERI : now visible

Airfield :











YOU CAN JOIN US ON...

 
LOGIN :

Register | Disclaimer

   EN    FR    IT 

 









Legend :    VFR   Marginal VFR   IFR   Intensive IFR   Very Intensive IFR
Visi :
Ceiling :
>= 8 km
>= 3000ft
5 to 8 km
1000 to 3000 ft
1500m to 5 km
500 to 1000 ft
800 to 1500m
200 to 500 ft
< 800m
< 200 ft
Symbols :   Thunderstorms  Fog  Heavy snow  Heavy precipitations  Wind > 20 kt






- Airport Elevation : 733 ft
- IATA code : ERI


KERI - Erie International Tom Ridge Field

CURRENT METAR :
  • 041451Z 20009KT 10SM OVC027 M01/M05 A3024 RMK AO2 SLP248 T10061050 56006

EXPIRED METARs :
  • 041351Z 21008KT 10SM OVC028 M01/M06 A3025 RMK AO2 SLP250 T10111056
  • 041251Z 21008KT 10SM OVC029 M01/M06 A3025 RMK AO2 SLP250 T10061056

TAF KERI
Valid from the 04 at 16:00 until the 05 at 12:00 UTC


041533Z 0416/0512 22012KT P6SM BKN028
FM041700 22012KT P6SM FEW250
KZOB FIR / North America



MET'MAP, your aeronautical weather chart ! - Copyright ORBIFLY December 2007 - Disclaimer

ORBIFLY MET'MAP TEAM :

Programming & Development : Alexandra Zaïnal
Original concept : Baudouin d'Aumeries
Technical & hardware support : Manuel Goepfert
Assistance : Marc-Olivier Méhu




SOURCES & CREDITS :

   NOAA       Earth
Advisory